EHI
0 0 0 1 1 0 0 0 0 0 0 0 0 0 0 0 0 0 0 0 0 0 0 0 0 0 0 0 0 0 0 0 0 0 0 0 0 0 0 0 0 0 0
0 1 3 5 4 2 1 0 0 0 0 0 0 0 0 0 0 0 0 0 0 0 0 0 0 0 0 0 0 0 0 0 0 0 0 0 0 0 0 0 0 0 0
0 2 8 15 18 14 8 3 0 0 0 0 0 0 0 0 0 0 0 0 0 0 0 0 0 0 0 0 0 0 0 0 0 0 0 0 0 0 0 0 0 0 0
0 3 12 27 39 36 22 10 3 0 0 0 0 0 0 0 0 0 0 0 0 0 0 0 0 0 0 0 0 0 0 0 0 0 0 0 0 0 0 0 0 0 0
0 2 15 40 58 53 34 16 6 1 0 0 0 0 0 0 0 0 0 0 0 0 0 0 0 0 0 0 0 0 0 0 0 0 0 0 0 0 0 0 0 0 0
0 2 19 53 72 62 39 19 7 2 1 0 0 0 0 0 0 0 0 0 0 0 0 0 0 0 0 0 0 0 0 0 0 0 0 0 0 0 0 0 0 0 0
0 1 20 56 78 70 47 25 11 4 2 2 1 0 1 1 0 0 0 0 0 0 0 0 0 0 0 0 0 0 0 0 0 0 0 0 0 0 0 0 0 0 0
0 0 13 41 65 67 53 33 18 9 5 3 2 3 5 3 0 0 0 0 0 0 0 0 0 0 0 0 0 0 0 0 0 0 0 0 0 0 0 0 0 0 0
0 0 4 17 34 44 39 28 17 10 5 2 3 6 6 3 0 0 0 0 0 0 0 0 0 0 0 0 0 0 0 0 0 0 0 0 0 0 0 0 0 0 0
0 0 0 3 10 16 15 11 8 4 2 1 3 4 3 1 0 0 0 0 0 0 0 0 0 0 0 0 0 0 0 0 0 0 0 0 0 0 0 0 0 0 0
0 0 0 0 1 2 1 1 1 0 0 0 1 1 0 0 0 0 0 0 0 0 0 0 0 0 0 0 0 0 0 0 0 0 0 0 0 0 0 0 0 0 0
0 0 0 0 0 0 0 0 0 0 0 0 0 0 0 0 0 0 0 0 0 0 0 0 0 0 0 0 0 0 0 0 0 0 0 0 0 0 0 0 0 0 0
0 0 0 0 0 0 0 0 0 0 0 0 0 0 0 0 0 0 0 0 0 0 0 0 0 0 0 0 0 0 0 0 0 0 0 0 0 0 0 0 0 0 0
0 0 0 0 0 0 0 0 0 0 0 0 0 0 0 0 0 0 0 0 0 0 0 0 0 0 0 0 0 0 0 0 0 0 0 0 0 0 0 0 0 0 0
0 0 0 0 0 0 0 0 0 0 0 0 0 0 0 0 0 0 0 0 0 0 0 0 0 0 0 0 0 0 0 0 0 0 0 0 0 0 0 0 0 0 0
0 0 0 0 0 0 0 0 0 0 0 0 0 0 0 0 0 0 0 0 0 0 0 0 0 0 0 0 0 0 0 0 0 0 0 0 0 0 0 0 0 0 0
0 0 0 0 0 0 0 0 0 0 0 0 0 0 0 0 0 0 0 0 0 0 0 0 0 0 0 0 0 0 0 0 0 0 0 0 0 0 0 0 0 0 0
0 0 0 0 0 0 0 0 0 0 0 0 0 0 0 0 0 0 0 0 0 0 0 0 0 0 0 0 0 0 0 0 0 0 0 0 0 0 0 0 0 0 0
0 0 0 0 0 0 0 0 0 0 0 0 0 0 0 0 0 0 0 0 0 0 0 0 0 0 0 0 0 0 0 0 0 0 0 0 0 0 0 0 0 0 0
0 0 0 0 0 0 0 0 0 0 0 0 0 0 0 0 0 0 0 0 0 0 0 0 0 0 0 0 0 0 0 0 0 0 0 0 0 0 0 0 0 0 0
0 0 0 0 0 0 0 0 0 0 0 0 0 0 0 0 0 0 0 0 0 0 0 0 0 0 0 0 0 0 0 0 0 0 0 0 0 0 0 0 0 0 0
0 0 0 0 0 0 0 0 0 0 0 0 0 0 0 0 0 0 0 0 0 0 0 0 0 0 0 0 0 0 0 0 0 0 0 0 0 0 0 0 0 0 0
0 0 0 0 0 0 0 0 0 0 0 0 0 0 0 0 0 0 0 0 0 0 0 0 0 0 0 0 0 0 0 0 0 0 0 0 0 0 0 0 0 0 0
0 0 0 0 0 0 0 0 0 0 0 0 0 0 0 0 0 0 0 0 0 0 0 0 0 0 0 0 0 0 0 0 0 0 0 0 0 0 0 0 0 0 0
0 0 0 0 0 0 0 0 0 0 0 0 0 0 0 0 0 0 0 0 0 0 0 0 0 0 0 0 0 0 0 0 0 0 0 0 0 0 0 0 0 0 0
0 0 0 0 0 0 0 0 0 0 0 0 0 0 0 0 0 0 0 0 0 0 0 0 0 0 0 0 0 0 0 0 0 0 0 0 0 0 0 0 0 0 0
Wind_Speed
5 9 14 15 15 14 14 13 13 12 12 11 11 10 10 10 11 11 11 11 11 11 11 10 10 10 10 10 9 9 9 10 10 10 10 11 12 12 12 11 8 7 10
8 12 15 14 15 15 14 13 12 12 11 11 11 10 10 10 11 11 11 11 11 10 9 8 8 8 8 8 8 7 7 8 9 8 8 8 11 12 12 11 10 7 12
10 12 14 14 15 14 14 14 13 12 12 11 11 10 9 9 10 10 10 10 9 8 7 7 7 7 7 7 6 6 7 8 8 6 4 3 6 11 11 10 10 11 11
11 11 12 14 15 15 15 14 14 14 13 12 11 10 10 10 10 10 10 9 8 6 6 6 6 6 6 6 5 6 7 8 8 5 2 1 3 8 10 10 10 10 11
10 10 11 14 15 15 15 15 14 13 13 13 13 12 11 11 10 10 9 8 7 6 5 5 5 5 5 5 5 5 7 8 7 6 5 3 2 7 9 9 9 9 9
8 9 11 16 16 15 15 15 14 14 13 13 13 13 13 12 11 10 8 7 7 6 5 5 5 5 4 4 4 5 7 8 8 5 5 4 3 7 8 8 8 8 8
8 8 10 15 15 15 15 15 14 13 13 12 12 12 13 12 11 10 9 8 7 6 5 5 5 4 4 4 4 5 7 8 6 5 5 4 4 7 7 7 6 6 7
8 8 9 14 14 14 15 15 14 13 12 12 11 12 13 13 12 10 9 8 7 6 6 6 5 4 4 4 4 5 7 7 6 5 4 4 5 6 6 5 5 5 6
5 7 7 9 11 13 14 14 13 13 12 11 11 12 12 12 12 10 9 9 8 7 6 6 5 5 4 4 5 6 8 9 5 3 4 3 3 4 4 4 3 3 4
4 5 7 8 8 8 10 13 14 13 12 11 11 11 12 13 12 11 9 9 9 8 8 7 7 6 5 4 4 6 8 8 5 4 3 3 3 3 2 2 1 1 2
4 5 6 8 8 7 7 9 11 12 12 11 9 11 11 7 7 7 8 10 10 9 9 9 8 7 5 3 4 6 6 3 3 3 2 3 2 2 2 1 1 1 1
7 7 7 9 9 8 7 6 6 6 7 7 5 7 6 6 6 6 9 10 9 9 10 11 10 8 4 2 2 4 2 3 2 1 1 2 1 2 3 3 3 3 3
7 6 7 9 9 9 7 5 4 4 4 5 6 6 5 5 5 5 4 4 5 6 5 6 6 3 2 1 1 1 1 2 1 1 1 1 1 3 5 5 5 4 4
5 6 6 7 8 9 8 6 5 5 4 4 5 7 6 4 5 4 4 4 3 2 3 3 3 3 3 3 3 2 2 2 1 1 1 1 3 4 6 7 6 6 5
7 7 6 6 8 8 7 6 6 6 6 6 5 6 7 5 5 5 4 4 4 3 4 4 4 4 3 3 3 4 3 3 3 2 1 2 3 5 7 8 7 7 7
11 10 8 4 5 6 6 6 6 6 6 6 6 7 8 6 6 6 5 5 4 4 4 4 4 4 3 2 3 4 4 3 3 3 2 1 2 2 5 8 9 9 8
11 11 11 7 3 3 4 5 4 4 5 5 5 7 8 7 7 6 6 6 6 5 5 3 3 2 2 2 3 3 3 3 3 4 3 1 1 3 2 4 7 9 9
12 13 13 11 7 3 1 1 2 3 3 3 4 4 7 7 7 6 5 6 6 6 5 4 3 3 2 2 2 2 2 3 4 4 3 3 1 1 2 2 1 6 9
12 13 14 14 12 8 5 3 3 2 2 1 1 2 4 5 6 5 5 5 6 5 5 5 3 3 3 3 2 2 2 3 3 3 4 4 3 2 0 1 2 1 6
12 13 15 16 16 11 6 5 5 6 5 4 3 2 0 1 3 4 3 5 5 4 5 5 4 3 2 3 1 2 3 4 3 4 4 3 3 4 3 2 0 1 3
15 17 17 18 16 12 7 5 5 5 5 6 6 7 5 4 3 2 1 3 4 5 6 7 4 4 2 3 2 2 3 4 5 4 4 4 5 5 4 4 3 2 2
15 15 16 16 16 14 9 4 3 3 4 5 7 9 10 8 6 4 3 1 1 2 3 4 4 3 3 4 4 1 3 4 5 5 4 5 5 4 5 6 5 5 4
16 15 13 15 16 15 13 8 6 6 6 8 9 9 10 10 9 7 6 3 1 0 2 4 4 6 4 4 3 4 4 6 4 3 5 5 5 5 5 5 6 6 6
11 10 12 14 15 15 13 12 13 10 8 7 6 7 10 12 11 10 8 6 3 2 2 2 3 3 4 4 4 3 3 2 2 5 4 3 5 6 6 6 6 7 7
9 10 10 12 15 14 14 14 12 11 7 6 7 11 11 10 12 12 10 8 6 3 3 3 2 4 4 4 5 4 4 3 3 3 5 4 4 6 7 7 6 6 7
8 9 10 12 13 12 13 13 12 12 11 11 11 10 8 7 8 13 11 9 7 5 5 4 3 4 4 5 5 5 4 4 4 5 6 5 5 5 5 5 7 7 7
Wind_Direction
193 174 179 172 165 159 154 149 146 143 141 137 132 126 119 113 113 112 112 106 100 94 88 82 77 71 68 67 67 63 57 52 57 68 79 81 76 74 77 68 61 62 71
166 170 173 173 168 163 157 153 151 149 148 145 142 138 132 125 121 116 111 106 100 96 94 89 84 77 72 69 65 59 52 46 42 38 48 74 83 78 74 67 65 65 65
154 169 171 173 171 167 161 159 158 158 157 155 152 149 145 140 133 126 118 111 107 104 102 99 94 87 80 71 62 52 43 39 29 16 37 61 86 89 81 72 66 64 61
159 167 173 175 173 171 167 165 166 166 165 164 162 160 157 152 145 138 130 122 118 116 113 107 99 90 82 72 59 45 39 35 29 36 89 106 93 101 92 82 74 68 63
158 166 173 174 176 175 173 172 172 173 173 172 172 170 168 163 155 146 139 133 131 132 128 118 107 92 79 68 54 42 39 43 59 67 75 77 81 108 101 95 87 78 70
161 168 173 175 179 179 179 179 179 180 180 181 180 179 174 167 160 153 148 145 146 148 145 132 117 102 85 65 47 40 44 63 77 71 64 58 62 104 105 104 99 91 82
166 172 175 177 181 181 183 184 185 186 187 188 189 186 176 168 163 160 159 157 160 164 158 143 127 113 97 76 58 48 47 70 85 75 62 49 65 90 94 97 98 92 85
167 175 177 181 183 184 186 188 189 190 192 194 196 192 180 172 169 169 170 171 175 177 170 155 140 125 107 88 73 56 50 72 90 80 62 44 73 85 81 77 75 84 82
172 172 180 187 189 188 188 189 191 193 195 197 200 195 180 171 171 171 175 178 183 185 179 163 152 140 118 92 74 55 55 80 87 77 59 32 63 92 83 66 62 76 84
192 185 184 188 191 193 194 195 193 194 197 200 203 196 179 171 169 171 174 179 184 188 183 171 164 154 130 104 78 56 67 76 79 72 49 27 54 98 97 74 57 81 101
214 203 191 190 193 194 195 200 198 198 200 201 205 196 178 171 165 169 176 181 185 186 182 176 173 158 136 116 84 66 72 76 87 73 42 35 76 142 146 165 193 178 157
227 213 197 195 195 194 198 197 200 199 201 199 192 186 176 166 167 169 181 184 187 185 182 180 175 152 130 96 47 60 66 92 96 94 36 45 54 204 185 192 194 189 174
241 231 208 200 196 194 198 195 197 196 193 194 189 179 171 166 166 167 166 181 186 180 173 175 155 139 148 157 120 83 92 101 119 118 336 14 311 253 204 195 192 185 176
289 271 248 214 199 197 194 194 192 194 197 199 192 182 176 176 173 170 171 172 170 162 160 147 143 160 177 189 183 167 143 143 160 171 269 272 270 260 221 199 195 190 185
349 329 303 241 212 199 191 191 191 195 198 197 187 190 188 184 178 171 172 171 174 165 164 161 163 173 184 185 182 173 168 169 177 185 267 290 272 255 229 206 197 190 187
353 342 332 306 243 209 196 192 190 189 189 188 190 192 193 190 178 173 171 172 176 177 173 170 174 179 193 194 194 185 182 182 184 185 204 325 357 308 238 215 202 195 188
354 353 352 338 316 232 209 196 183 178 177 185 189 191 192 191 182 175 175 177 179 173 166 158 164 162 191 210 211 200 193 197 192 187 190 198 339 11 13 218 208 200 187
5 6 5 5 3 350 295 181 164 164 169 181 183 186 189 188 182 173 175 182 175 167 165 165 163 171 206 223 232 235 221 213 205 194 185 186 186 9 18 64 173 195 190
13 15 16 15 13 11 26 52 66 76 95 136 167 185 192 188 179 174 178 176 167 169 171 171 163 166 188 215 237 262 265 247 228 208 191 186 187 182 174 60 53 127 191
22 26 26 23 18 13 23 38 45 47 39 38 34 22 49 181 173 166 165 164 161 164 169 172 164 165 167 170 196 276 285 273 260 236 211 193 193 193 194 203 248 285 214
31 31 28 28 21 20 16 17 27 33 25 29 27 26 28 38 61 102 130 155 166 180 187 181 154 165 158 131 112 315 302 276 260 247 228 209 205 200 196 203 213 229 243
36 32 33 31 27 26 20 12 24 32 33 29 28 27 23 26 35 46 60 95 182 181 172 173 160 156 171 162 148 153 285 295 259 236 229 221 214 202 206 206 207 215 222
36 31 34 34 33 29 26 27 26 28 25 22 19 18 17 21 25 28 31 34 26 193 208 203 193 180 190 199 183 169 195 247 288 274 240 230 218 213 214 209 211 214 214
33 32 38 40 40 35 35 40 46 44 35 16 9 16 17 21 22 20 19 21 19 356 304 253 227 222 198 206 220 223 208 208 256 303 300 264 238 230 222 217 214 214 210
35 36 37 43 43 39 42 43 47 45 34 19 21 24 21 18 20 16 12 9 7 355 329 304 271 244 232 226 213 211 216 210 193 226 282 297 279 243 227 221 216 215 211
39 39 39 46 43 38 43 44 47 44 36 32 26 22 17 13 14 13 8 6 1 354 338 318 294 267 253 251 245 229 221 219 209 207 239 248 256 264 241 225 223 222 214